Temperature
16 16 17 17 17 17 17 17 17 18 19 18 18 18 17 17 17 16 16 16 17 16 16 16 16 16 16 16 16 16 15 15 15 15 15 15 15 15
17 16 16 16 17 16 17 17 17 17 18 18 17 17 17 17 16 16 16 16 17 16 16 16 16 16 16 16 16 16 15 15 15 15 15 15 15 15
16 16 16 16 16 16 16 16 16 16 17 17 17 17 16 16 16 16 16 16 16 16 16 16 16 16 16 16 15 15 15 15 15 15 15 15 15 15
16 16 16 16 16 16 16 16 16 16 16 16 16 16 16 16 16 16 16 16 16 16 16 16 16 16 16 16 15 15 15 15 15 15 15 15 15 14
16 16 16 16 16 16 16 16 16 16 16 16 16 16 16 16 15 15 15 16 16 16 16 16 16 16 16 15 15 15 15 15 15 14 14 14 14 14
16 16 16 16 16 16 16 16 15 15 15 15 15 16 15 15 15 15 15 15 15 15 15 15 15 15 15 15 15 15 14 14 14 14 14 14 14 14
16 16 15 15 16 15 15 15 15 15 15 15 15 15 15 15 15 15 15 15 15 15 15 15 15 15 15 14 14 14 14 14 14 13 13 13 13 13
15 15 15 15 15 15 15 15 15 14 14 14 14 14 14 14 14 14 14 14 14 14 14 14 14 14 14 14 14 14 13 13 13 13 13 13 13 13
15 15 14 14 14 14 14 14 14 14 14 14 13 13 13 13 13 13 13 13 13 13 13 13 13 13 13 13 13 13 13 12 12 12 12 12 12 12
14 14 14 14 14 14 13 13 13 13 13 13 13 13 13 13 12 12 12 12 13 13 12 12 13 13 13 12 12 12 12 12 12 12 12 12 12 11
14 13 13 13 13 13 13 13 12 12 12 12 12 12 12 12 12 12 11 12 12 12 12 12 12 12 12 12 12 11 11 11 11 11 11 11 11 11
13 13 13 13 13 13 12 12 12 12 12 11 11 11 11 11 11 11 11 11 11 11 11 11 11 11 11 11 11 11 11 10 10 10 10 10 10 10
12 12 12 12 12 12 12 11 11 11 11 11 11 11 10 10 10 10 10 10 10 10 10 9 10 10 10 10 10 10 10 10 10 10 10 10 9 9
11 11 11 11 11 11 11 10 10 10 10 10 10 10 10 10 9 9 9 9 9 9 9 9 8 8 9 9 9 10 9 9 9 9 9 9 9 9
11 10 10 10 10 10 10 10 10 10 10 10 10 9 9 9 9 9 9 8 8 8 8 8 8 8 8 8 9 9 9 9 9 8 8 8 8 8
10 10 10 10 9 9 9 9 9 9 9 9 8 8 8 8 8 8 8 8 8 8 8 7 7 7 7 7 8 8 8 8 8 8 8 8 8 8
9 9 9 9 9 8 8 8 8 8 8 8 8 8 8 8 8 7 7 7 7 8 8 7 7 7 7 7 7 7 8 8 7 7 7 7 7 7
9 9 9 8 8 8 8 8 7 7 7 7 7 7 7 7 7 7 7 6 7 7 7 7 6 6 7 7 7 7 7 7 7 7 6 7 7 7
9 8 8 8 7 7 7 7 7 6 6 6 6 6 6 6 6 6 6 6 6 6 6 6 6 6 6 6 7 6 6 6 6 6 6 6 6 6
8 7 7 7 7 6 6 6 6 6 6 5 5 5 5 5 5 5 5 5 5 5 5 5 5 5 5 5 5 6 6 6 6 6 6 6 6 6
7 6 6 6 6 6 5 5 5 5 5 5 5 5 5 5 5 5 5 5 5 5 5 5 5 4 4 5 5 5 6 5 5 5 5 5 5 5
6 6 5 5 5 5 5 5 5 5 4 5 4 4 4 5 5 5 4 4 4 4 4 4 4 4 5 5 5 5 5 5 5 5 5 5 4 5
5 5 5 5 5 4 4 4 4 4 4 4 4 4 4 4 4 4 4 4 4 4 4 4 4 4 4 5 5 5 5 5 5 5 5 5 4 4
Wind_Speed
10 10 9 8 7 7 6 6 7 8 7 5 6 5 6 7 5 8 9 10 14 15 16 16 16 16 16 16 16 16 16 17 17 18 18 18 18 17
8 9 9 8 7 6 6 7 7 8 8 5 4 5 4 6 6 9 10 9 13 15 15 15 15 15 15 15 16 16 16 16 16 16 17 17 17 17
10 10 10 9 7 6 6 7 7 7 8 8 5 4 4 7 5 7 10 10 10 15 15 15 15 15 15 16 16 15 15 15 16 16 16 16 16 16
10 9 9 8 8 7 6 7 7 7 8 9 7 6 6 7 6 7 8 9 9 10 14 14 14 15 15 15 15 15 15 15 16 16 16 16 16 16
8 9 8 8 7 6 6 7 6 7 7 7 8 5 6 6 6 7 8 7 10 8 12 14 14 14 14 15 15 15 15 15 15 16 16 16 16 17
7 7 6 6 6 6 5 6 6 6 6 7 7 6 6 5 5 7 7 7 7 8 6 7 11 14 16 16 16 15 15 15 15 16 16 17 17 17
5 5 4 3 2 3 4 4 5 5 5 6 6 6 5 4 5 6 7 6 6 6 6 7 7 8 9 13 15 14 13 14 14 15 15 16 17 17
4 4 4 4 4 4 2 0 2 4 4 5 5 5 5 5 5 6 6 6 6 3 5 7 6 7 6 8 6 7 9 10 11 12 13 15 16 17
3 2 2 1 2 3 4 5 2 1 3 4 4 5 5 4 5 6 5 6 6 6 5 7 6 7 7 7 5 7 8 10 11 12 13 14 15 16
1 2 1 1 0 1 2 2 2 1 1 2 2 4 3 4 4 5 6 6 7 6 5 7 7 7 7 7 6 9 10 11 12 13 14 14 15 16
3 3 2 1 3 2 2 2 1 1 3 3 2 1 2 3 4 4 5 6 6 5 4 6 7 8 8 8 7 10 12 13 14 15 15 15 15 15
5 5 8 6 6 4 1 1 0 1 1 1 2 3 2 2 2 3 5 6 6 6 4 5 7 8 8 7 6 7 9 12 15 17 17 17 15 12
4 5 6 9 9 8 5 4 3 3 2 1 1 1 1 2 2 3 4 6 7 7 6 5 7 8 8 8 8 8 8 8 9 11 14 15 15 12
5 5 6 8 9 8 6 5 4 5 2 2 2 3 3 4 4 4 5 6 6 8 8 7 7 8 9 11 10 8 8 8 9 9 10 9 12 16
7 8 7 5 5 6 6 4 4 3 3 3 3 4 4 5 5 4 5 5 6 7 6 6 7 8 9 10 11 10 10 9 8 9 9 10 9 9
6 7 6 4 4 4 3 3 4 5 4 4 4 4 4 4 4 5 6 6 6 6 4 6 7 8 9 10 10 11 10 9 9 9 10 10 10 10
3 3 4 4 4 5 5 5 4 4 4 4 4 5 5 5 5 5 5 6 7 7 7 6 6 8 9 10 10 10 10 10 9 9 10 11 10 9
3 5 5 5 5 5 5 5 5 5 5 5 5 5 6 6 6 6 6 6 7 7 8 8 8 8 9 7 6 10 10 10 10 10 10 11 11 9
5 6 6 6 5 5 5 6 6 6 6 5 6 6 6 6 6 6 7 7 8 8 8 8 8 8 10 10 7 5 10 11 11 10 10 10 10 9
6 6 6 6 6 6 6 6 6 6 6 6 6 6 6 7 7 7 7 8 9 9 9 8 7 8 9 10 11 11 10 10 10 10 11 10 9 9
6 6 6 6 6 6 6 6 6 6 7 7 7 7 7 8 7 8 8 8 8 9 9 9 8 8 9 8 9 9 9 7 7 8 10 10 10 9
6 6 6 6 6 6 6 6 6 6 7 7 7 8 8 8 8 8 8 8 8 8 9 9 9 8 8 8 10 10 11 10 7 8 8 8 8 8
6 5 5 5 6 6 6 7 7 7 7 7 8 8 8 8 8 8 8 8 8 9 10 9 9 8 8 9 9 10 12 11 9 9 7 5 9 12
Wind_Direction
231 226 233 239 239 243 246 253 263 269 262 230 236 234 240 246 222 234 243 216 220 231 235 237 237 237 238 240 244 246 249 250 249 249 249 250 251 252
230 233 231 235 233 238 241 245 251 262 271 271 247 257 258 266 223 239 243 224 222 229 233 234 236 238 239 242 244 245 247 248 250 251 251 252 252 252
225 225 227 234 231 232 234 240 243 248 258 266 267 260 246 265 261 251 251 247 237 217 222 229 234 237 239 241 243 243 245 246 249 251 253 254 255 255
224 223 225 222 222 235 239 243 246 248 254 262 268 263 245 249 256 258 261 254 256 213 211 225 232 235 237 238 241 244 246 248 250 252 254 254 255 257
223 221 223 221 222 229 236 245 249 247 249 259 263 262 259 253 254 255 259 265 265 239 210 218 227 232 235 237 239 243 245 248 252 254 256 257 257 258
220 217 219 217 219 226 230 241 249 254 252 257 264 263 258 255 255 261 260 249 258 264 258 244 226 227 233 234 237 241 245 249 253 256 256 257 259 261
207 206 206 194 197 229 241 243 248 252 256 259 264 270 273 279 274 278 280 279 268 265 267 262 249 247 240 234 232 238 246 252 257 260 261 262 263 264
196 197 195 185 175 170 156 322 296 263 266 271 273 278 285 285 289 288 287 283 278 275 274 273 268 267 262 260 219 221 242 254 261 263 265 268 268 267
209 211 217 202 178 203 182 186 195 252 271 275 280 289 291 295 291 284 284 288 287 294 284 276 270 268 269 265 194 214 237 252 261 263 267 271 272 270
149 135 136 111 37 234 207 184 180 184 222 242 279 293 312 321 300 286 287 277 268 263 271 280 285 282 283 279 221 221 236 248 254 258 262 266 270 271
88 72 77 88 16 316 203 181 178 186 129 124 104 46 23 1 328 300 301 293 292 292 280 279 288 290 286 278 259 221 233 242 248 253 258 262 266 271
90 76 58 51 37 18 112 158 207 312 315 158 178 212 244 255 259 299 304 297 297 296 313 301 296 302 295 285 288 281 265 253 247 251 252 253 256 269
93 79 62 54 53 44 41 46 16 337 331 314 304 296 286 297 305 317 313 302 302 299 318 316 302 301 293 293 294 291 289 288 280 270 254 246 242 251
81 81 77 69 68 58 56 30 345 317 343 344 343 342 336 337 341 332 318 304 298 294 300 303 296 298 296 294 296 298 297 295 294 294 294 275 246 243
82 80 84 89 106 85 64 8 340 10 10 359 354 350 345 341 326 319 313 302 288 282 289 299 295 295 291 291 296 301 301 299 296 295 294 294 293 287
97 109 118 95 87 75 73 47 41 32 10 1 351 344 337 333 331 335 327 323 313 308 306 298 291 292 290 294 294 294 296 296 300 300 300 296 293 290
85 89 74 69 63 59 54 44 34 29 18 7 351 340 339 338 339 337 328 320 316 316 318 316 307 295 288 287 292 296 301 302 304 308 303 296 295 294
47 73 63 55 49 43 36 33 29 21 8 358 354 349 342 338 337 336 332 327 323 322 320 321 319 310 302 290 277 297 303 307 309 307 301 299 298 301
68 67 59 52 47 43 36 29 23 20 4 357 355 352 346 342 339 337 334 330 324 321 320 318 316 315 311 311 309 296 307 307 307 306 306 305 303 308
60 61 56 48 41 34 28 23 16 9 2 355 353 349 343 338 334 332 329 330 323 318 316 318 321 320 314 311 308 305 295 300 310 312 312 310 306 300
55 52 45 39 34 27 19 12 8 5 360 349 351 345 339 334 334 332 329 331 319 320 325 328 335 318 303 299 299 307 316 314 306 304 310 308 309 310
51 48 42 34 28 21 15 9 4 1 354 348 346 340 337 334 333 331 332 332 329 327 325 323 324 319 315 311 310 313 318 322 306 270 267 278 304 311
48 41 35 29 24 15 8 5 0 356 352 347 343 338 337 334 332 333 333 331 330 330 328 327 327 324 322 318 318 320 324 325 327 326 325 292 262 264
Height
1555 1556 1557 1559 1560 1561 1562 1563 1564 1563 1563 1563 1564 1564 1563 1563 1563 1563 1563 1563 1563 1563 1564 1564 1564 1564 1565 1565 1565 1565 1565 1564 1564 1564 1564 1564 1564 1563
1550 1551 1553 1555 1556 1557 1558 1559 1560 1561 1560 1560 1560 1560 1559 1560 1559 1558 1559 1558 1558 1559 1559 1559 1560 1560 1560 1560 1560 1560 1560 1559 1559 1559 1559 1558 1558 1558
1546 1547 1548 1550 1552 1553 1554 1555 1555 1556 1556 1557 1556 1556 1554 1555 1555 1554 1555 1554 1555 1554 1554 1554 1554 1555 1555 1555 1554 1554 1554 1554 1554 1553 1553 1553 1552 1552
1541 1543 1544 1546 1547 1548 1549 1550 1551 1552 1552 1552 1552 1552 1551 1550 1550 1550 1551 1551 1551 1550 1549 1549 1549 1549 1549 1549 1549 1548 1548 1548 1548 1548 1547 1547 1546 1546
1537 1539 1540 1542 1543 1544 1545 1546 1547 1548 1548 1548 1548 1548 1547 1547 1546 1546 1546 1545 1546 1545 1544 1543 1543 1543 1542 1542 1542 1542 1542 1542 1542 1541 1541 1540 1540 1539
1533 1535 1536 1537 1538 1539 1541 1541 1543 1543 1544 1544 1544 1543 1543 1542 1542 1542 1542 1541 1541 1541 1539 1538 1537 1537 1536 1536 1536 1535 1535 1535 1535 1534 1534 1533 1532 1532
1529 1531 1532 1533 1534 1535 1537 1538 1539 1540 1540 1540 1540 1540 1539 1539 1538 1538 1538 1537 1535 1535 1534 1534 1533 1531 1530 1529 1528 1528 1528 1528 1527 1527 1526 1526 1525 1524
1525 1527 1528 1529 1530 1531 1532 1533 1535 1535 1536 1536 1536 1535 1534 1534 1534 1533 1533 1532 1531 1531 1529 1528 1528 1526 1525 1524 1522 1522 1521 1521 1520 1519 1518 1518 1517 1516
1523 1524 1525 1526 1527 1528 1528 1529 1530 1530 1531 1531 1531 1531 1531 1530 1529 1529 1528 1527 1526 1525 1524 1523 1522 1521 1520 1519 1516 1516 1515 1514 1513 1512 1511 1510 1509 1508
1520 1521 1522 1523 1523 1524 1525 1526 1526 1526 1527 1527 1527 1527 1527 1526 1525 1525 1524 1523 1521 1521 1520 1519 1518 1516 1515 1514 1511 1510 1509 1508 1506 1505 1504 1502 1501 1500
1518 1519 1519 1520 1520 1521 1522 1522 1523 1523 1523 1523 1523 1523 1522 1522 1522 1522 1521 1520 1519 1518 1516 1515 1513 1512 1510 1508 1507 1504 1503 1501 1500 1498 1497 1495 1494 1492
1516 1517 1517 1518 1518 1518 1519 1520 1520 1521 1521 1521 1521 1520 1520 1519 1518 1518 1518 1517 1516 1515 1513 1511 1509 1508 1505 1504 1502 1500 1498 1496 1494 1492 1490 1489 1487 1485
1516 1516 1516 1517 1517 1517 1518 1518 1518 1519 1519 1520 1520 1519 1519 1518 1517 1515 1514 1513 1512 1511 1510 1508 1506 1504 1502 1499 1497 1495 1493 1491 1489 1487 1485 1483 1481 1479
1517 1517 1517 1517 1517 1517 1517 1517 1518 1518 1519 1519 1519 1518 1517 1516 1514 1513 1511 1509 1508 1507 1505 1504 1502 1500 1498 1495 1493 1491 1488 1486 1484 1481 1480 1477 1475 1472
1517 1517 1517 1518 1518 1518 1518 1517 1518 1518 1518 1518 1517 1516 1515 1513 1511 1510 1508 1506 1504 1503 1502 1499 1498 1496 1494 1492 1489 1486 1484 1482 1480 1477 1474 1472 1470 1468
1518 1518 1518 1518 1518 1518 1518 1518 1517 1517 1516 1517 1516 1515 1513 1512 1510 1508 1506 1504 1502 1500 1498 1496 1493 1491 1489 1487 1485 1482 1479 1477 1475 1472 1469 1467 1464 1462
1520 1521 1521 1521 1520 1520 1519 1518 1518 1517 1516 1516 1515 1513 1512 1510 1508 1506 1503 1501 1500 1497 1495 1493 1490 1488 1485 1483 1480 1478 1475 1473 1470 1467 1464 1461 1459 1457
1522 1522 1522 1522 1521 1521 1520 1519 1518 1517 1516 1515 1513 1512 1510 1508 1506 1504 1502 1500 1497 1495 1493 1490 1487 1484 1482 1479 1477 1474 1471 1469 1466 1463 1460 1457 1454 1452
1523 1523 1523 1522 1522 1522 1521 1520 1519 1517 1515 1514 1512 1510 1509 1507 1505 1502 1500 1498 1495 1493 1490 1487 1484 1482 1479 1476 1473 1471 1468 1465 1462 1459 1456 1453 1449 1447
1524 1524 1524 1524 1523 1522 1521 1520 1519 1518 1516 1514 1512 1510 1508 1506 1503 1501 1499 1496 1493 1491 1488 1485 1482 1480 1477 1474 1470 1467 1465 1462 1459 1455 1452 1449 1446 1443
1526 1526 1525 1525 1524 1523 1521 1520 1519 1517 1515 1514 1512 1509 1507 1505 1503 1500 1498 1494 1492 1489 1486 1483 1480 1477 1473 1471 1468 1464 1462 1459 1455 1452 1448 1445 1442 1439
1528 1527 1527 1526 1524 1523 1522 1520 1519 1517 1515 1513 1511 1509 1506 1504 1501 1499 1496 1493 1490 1488 1485 1481 1478 1475 1472 1469 1466 1462 1459 1456 1453 1449 1446 1444 1440 1437
1529 1528 1527 1526 1525 1523 1522 1520 1518 1517 1514 1512 1510 1507 1505 1503 1500 1498 1495 1492 1489 1486 1483 1480 1477 1474 1471 1468 1464 1461 1457 1454 1451 1447 1444 1441 1438 1435